716  
ASUS44 KLCH 192211  
RWRLCH  
REGIONAL WEATHER ROUNDUP  
NATIONAL WEATHER SERVICE LAKE CHARLES LA  
500 PM CDT SUN MAY 19 2019  
 
NOTE: "FAIR" INDICATES FEW OR NO CLOUDS BELOW 12,000 FEET WITH NO  
SIGNIFICANT WEATHER AND/OR S TO VISIBILITY
.  
 
ACROSS SOUTHEAST TEXAS  
 
CITY SKY/WX TMP DP RH WIND PRES REMARKS
 
BEAUMONT PTSUNNY 86 76 71 S17 29.87S  
BEAUMONT CITY NOT AVBL  
ORANGE CLOUDY 82 78 89 S6G17 29.91R  
JASPER PTSUNNY 89 77 66 S7 29.88S HX 102  

 
 
ACROSS CENTRAL LOUISIANA  
 
CITY SKY/WX TMP DP RH WIND PRES REMARKS
 
LEESVILLE LGT RAIN 75 73 92 S7 29.89F  
FULLERTON NOT AVBL  
ALEXANDRIA INT FAIR 78 72 81 SE9 29.89F  
ESLER FIELD FAIR 79 71 76 S7 29.91F  
DERIDDER TSTM 71 70 95 SE6 29.92F  
OAKDALE NOT AVBL  
OPELOUSAS CLOUDY 79 70 75 SE8 29.93R  

 
 
ACROSS SOUTHWEST AND SOUTH CENTRAL LOUISIANA  
 
CITY SKY/WX TMP DP RH WIND PRES REMARKS
 
DEQUINCY MOCLDY 75 71 89 SE5 29.90F  
SULPHUR MOCLDY 83 74 74 SE16 29.91S  
LAKE CHARLES CLOUDY 82 72 71 SE18 29.90F  
CHENNAULT INT NOT AVBL  
CAMERON PHI NOT AVBL  
GRAND CHENIER NOT AVBL  
JENNINGS CLOUDY 77 71 81 SE7 29.93S  
LAFAYETTE CLOUDY 80 72 76 CALM 29.93S  
NEW IBERIA CLOUDY 79 70 74 SE9 29.94S  
ABBEVILLE CLOUDY 78 69 74 SE8 29.94S  
PATTERSON FAIR 78 71 79 CALM 29.94F  
SALT POINT NOT AVBL  

 
 
SELECTED SITES ACROSS THE REGION  
 
CITY SKY/WX TMP DP RH WIND PRES REMARKS
 
HOUSTON BUSH CLOUDY 88 78 72 SE18 29.83S HX 101  
HOUSTON HOBBY PTSUNNY 89 73 59 S15 29.83F  
GALVESTON CLOUDY 83 77 82 SE15 29.87F  
COLLEGE STAT MOSUNNY 92 73 53 S8 29.81F HX 100  
CONROE PTSUNNY 91 73 55 S9 29.83F  
HUNTSVILLE MOSUNNY 92 71 50 S8 29.83F  
LUFKIN MOSUNNY 89 72 56 S5 29.83F  
SHREVEPORT MOSUNNY 90 71 53 SW6 29.84F  
MONROE FAIR 83 73 72 S8 29.90S  
NATCHEZ MS CLOUDY 80 69 69 S10 29.94F  
BATON ROUGE FAIR 81 67 62 SE9 29.94F  
N.O. INTL ARPT PTSUNNY 78 69 73 E6 29.96S  
SLIDELL FAIR 78 69 73 E3 29.96S  

 
 
MARINE REPORTS  
 
STATION/POSITION TIME SKY/WX TEMP WIND PRES VSBY
 
AIR SEA DIR/SP/G  
(UTC) (F) (DEG/KT/KT) (MB) (MI)  
BUOY 30 S HIGH I 2150 80 80 120/ 14/ 16 1012.3F  
WVE H/P(F/S)= 4/ 7  
 
SEA RIM ST PARK NOT AVBL  
PORT ARTHUR 2136 82 77 140/ 8/ 12 1012.5R  
SABINE PASS N 2136 79 81 130/ 17/ 20 1013.8R  
TEXAS POINT 2148 78 80 130/ 20/ 22 1011.9R  
CALCASIEU PASS 2148 79 81 140/ 16/ 21 1012.0S  
LK CHARLES BEACH 2136 76 75 1012.5F  
MARSH ISLAND 2100 75 N/A  
FRESH WATER LOCK NOT AVBL  
AMERADA PASS 2148 74 74 100/ 4/ 7 1013.6F  

 
 
 
CLICK HERE TO GO TO PREVIOUS BULLETINS.

The Nexlab LA Page
The Nexlab TX Page Main Text Page